Find Starlink 35925

NORAD ID: 66887 Int'l Des: 2025-283 Owner: SPXS Country: US Constellation: starlink operational
LEOCIRCULAR

Current View

Loading 3D Globe...

About Starlink 35925

Description loading...

Upcoming Passes

Passes for default location (London). Set your location on the main map for personalized predictions.

Altitude History

Loading altitude history...

Two-Line Element Set

1 66887U 25283K 26146.66668981 .00031121 00000-0 92899-3 0 9992
2 66887 53.1601 21.9573 0001205 93.2283 243.5887 15.34379387 5782
Epoch: May 26, 2026 • Age: 7 hours

Current Status

Altitude 464.9 km
Velocity 7.64 km/s
Sub-Earth Point 36.44°N, 61.21°W
Launch Date Dec 4, 2025
Age 0.4 years
Type internet

Technical Details

Classification Payload
Mass 575.00 kg
Dry Mass 530.00 kg
Total Mass 575.00 kg
Length 0.30 m
Diameter 4.10 m
Span 29.00 m
Shape Box + pan
Manufacturer SPXS
Bus Type Starlink V2MO
Phase Status In Orbit
Owner/State SPXS/US

Most Searched